Location: La Pernelle
(49.6188°N, 1.2999°W)
Time: 17:53:01
(UTC+00:00)

SL-16 R/B - Pass Details

Date: 24 October 2021
Orbit: 842 x 846 km, 71.0° (Epoch: 28 November)

Event Time Altitude Azimuth Distance (km) Brightness Sun altitude
Exits shadow 03:07:18 23° 127° (SE) 1,739 4.0 -34.6°
Drops below altitude 10° 03:09:22 10° 134° (SE) 2,465 4.8 -34.3°
Sets 03:11:51 0° 139° (SE) 3,396 5.5 -33.9°
